This is the latest recevied weather packets stored in our database for station/object WE8L. If no packets are shown the sender has not sent any weather packets the latest 10 day(s).
| Time | Temp. | Humidity | Pressure | Rain* | Wind** | Luminosity | Snow |
|---|---|---|---|---|---|---|---|
| 1777815701 | 10° C | 54% | 1022.2 hPa | 0 mm | - | 310 W/m² | - |
| 1777815398 | 10° C | 55% | 1022 hPa | 0 mm | - | 213 W/m² | - |
| 1777815095 | 9.44° C | 57% | 1022 hPa | 0 mm | - | 318 W/m² | - |
| 1777814791 | 9.44° C | 55% | 1021.9 hPa | 0 mm | - | 309 W/m² | - |
| 1777814488 | 9.44° C | 56% | 1022 hPa | 0 mm | - | 295 W/m² | - |
| 1777814186 | 9.44° C | 57% | 1022 hPa | 0 mm | - | 34 W/m² | - |
| 1777813883 | 8.89° C | 57% | 1022 hPa | 0 mm | - | 31 W/m² | - |
| 1777813580 | 8.89° C | 57% | 1022.1 hPa | 0 mm | - | 31 W/m² | - |
| 1777813278 | 8.33° C | 58% | 1022.1 hPa | 0 mm | - | 30 W/m² | - |
| 1777812974 | 8.33° C | 59% | 1022.1 hPa | 0 mm | - | 30 W/m² | - |
| 1777812672 | 8.33° C | 59% | 1022.1 hPa | 0 mm | - | 29 W/m² | - |
| 1777812369 | 8.33° C | 59% | 1022.1 hPa | 0 mm | - | 29 W/m² | - |
| 1777812067 | 8.33° C | 59% | 1022.1 hPa | 0 mm | - | 28 W/m² | - |
| 1777811765 | 7.78° C | 60% | 1022.3 hPa | 0 mm | - | 27 W/m² | - |
| 1777811461 | 7.22° C | 63% | 1022 hPa | 0 mm | - | 33 W/m² | - |
| 1777811158 | 7.22° C | 65% | 1022 hPa | 0 mm | - | 131 W/m² | - |
| 1777810855 | 6.67° C | 66% | 1022.2 hPa | 0 mm | - | 71 W/m² | - |
| 1777810552 | 6.67° C | 67% | 1022 hPa | 0 mm | - | 24 W/m² | - |
| 1777810249 | 6.11° C | 67% | 1021.8 hPa | 0 mm | - | 23 W/m² | - |
| 1777809944 | 6.11° C | 67% | 1021.8 hPa | 0 mm | - | 22 W/m² | - |
| 1777809643 | 6.11° C | 68% | 1021.9 hPa | 0 mm | - | 21 W/m² | - |
| 1777809340 | 5.56° C | 68% | 1021.9 hPa | 0 mm | - | 20 W/m² | - |
| 1777809038 | 5.56° C | 70% | 1021.8 hPa | 0 mm | - | 19 W/m² | - |
| 1777808735 | 5° C | 73% | 1021.7 hPa | 0 mm | - | 18 W/m² | - |
| 1777808431 | 5° C | 74% | 1021.7 hPa | 0 mm | - | 17 W/m² | - |
* Rain latest hour (hover to see other rain measurements)
** Current wind speed in m/s (hover to see current wind gust speed)